Location: Charbonni�res
(45.9952°N, 2.9982°E)
Time: 18:31:30
(UTC+00:00)

Meteor 2-3 Rocket - Pass Details

Date: 29 November 2020
Orbit: 842 x 885 km, 81.2° (Epoch: 22 January)

Event Time Altitude Azimuth Distance (km) Brightness Sun altitude
Rises 05:06:00 0° 204° (SSW) 3,439 6.7 -20.5°
Reaches altitude 10° 05:08:28 10° 209° (SSW) 2,512 6.0 -20.0°
Maximum altitude 05:14:03 53° 285° (WNW) 1,072 3.8 -19.1°
Drops below altitude 10° 05:19:44 10° 3° (N) 2,552 6.1 -18.1°
Sets 05:22:16 0° 8° (N) 3,499 6.9 -17.7°
